Visibility
15.0 15.0 15.0 15.0 15.0 15.0 15.0 15.0 15.0 15.0 15.0 15.0 15.0 15.0 15.0 15.0 15.0 15.0 15.0 15.0 15.0 7.4 14.5 15.0 15.0 15.0 15.0 15.0 10.3 4.4 5.7 5.9 0.1 0.1 0.1 0.2 15.0 15.0 15.0 15.0 15.0 13.8 13.6 4.0 10.9 15.0 15.0 15.0 15.0 15.0 15.0 15.0 15.0 15.0
15.0 15.0 15.0 15.0 15.0 15.0 15.0 15.0 15.0 15.0 15.0 15.0 15.0 15.0 15.0 15.0 15.0 15.0 15.0 15.0 15.0 15.0 13.9 15.0 15.0 15.0 15.0 15.0 13.3 15.0 15.0 15.0 15.0 14.9 15.0 15.0 15.0 15.0 15.0 15.0 15.0 15.0 15.0 15.0 15.0 15.0 15.0 15.0 15.0 15.0 15.0 15.0 15.0 15.0
15.0 15.0 15.0 15.0 15.0 15.0 15.0 15.0 15.0 15.0 15.0 15.0 15.0 15.0 15.0 15.0 15.0 15.0 15.0 15.0 15.0 15.0 15.0 15.0 15.0 15.0 15.0 15.0 15.0 15.0 15.0 15.0 15.0 15.0 15.0 15.0 15.0 15.0 15.0 15.0 15.0 15.0 15.0 15.0 15.0 15.0 15.0 15.0 15.0 15.0 15.0 15.0 15.0 15.0
15.0 15.0 15.0 15.0 15.0 15.0 15.0 15.0 15.0 15.0 15.0 15.0 15.0 15.0 15.0 15.0 15.0 15.0 15.0 15.0 15.0 15.0 15.0 15.0 15.0 15.0 15.0 15.0 15.0 15.0 15.0 15.0 15.0 15.0 15.0 15.0 15.0 15.0 15.0 15.0 15.0 15.0 15.0 15.0 15.0 15.0 15.0 15.0 15.0 15.0 15.0 15.0 15.0 15.0
15.0 15.0 15.0 15.0 15.0 15.0 15.0 15.0 15.0 15.0 15.0 15.0 15.0 15.0 15.0 15.0 15.0 15.0 15.0 15.0 15.0 15.0 15.0 15.0 15.0 15.0 15.0 15.0 15.0 15.0 15.0 15.0 15.0 15.0 15.0 15.0 15.0 15.0 15.0 15.0 15.0 15.0 15.0 15.0 15.0 15.0 15.0 15.0 15.0 15.0 15.0 15.0 15.0 15.0
13.6 12.6 15.0 15.0 15.0 15.0 15.0 15.0 15.0 15.0 15.0 15.0 15.0 15.0 15.0 15.0 15.0 15.0 15.0 15.0 15.0 15.0 15.0 15.0 15.0 15.0 15.0 15.0 15.0 15.0 15.0 15.0 15.0 15.0 15.0 15.0 15.0 15.0 15.0 15.0 15.0 15.0 15.0 15.0 15.0 15.0 15.0 15.0 15.0 15.0 15.0 15.0 15.0 15.0
15.0 11.5 14.0 15.0 15.0 15.0 15.0 15.0 15.0 15.0 15.0 15.0 15.0 15.0 15.0 15.0 15.0 3.7 12.1 15.0 15.0 15.0 15.0 15.0 15.0 15.0 15.0 15.0 15.0 15.0 15.0 13.3 15.0 7.4 15.0 15.0 15.0 15.0 12.1 15.0 15.0 15.0 15.0 15.0 15.0 15.0 15.0 15.0 15.0 15.0 15.0 15.0 15.0 15.0
13.3 8.7 13.7 14.9 15.0 14.7 15.0 15.0 15.0 15.0 15.0 15.0 15.0 15.0 15.0 15.0 15.0 6.8 7.8 15.0 15.0 15.0 15.0 15.0 14.6 15.0 15.0 15.0 6.4 4.8 0.1 9.0 9.7 8.8 3.7 15.0 15.0 13.4 0.2 15.0 15.0 15.0 15.0 15.0 15.0 15.0 15.0 15.0 15.0 15.0 15.0 15.0 15.0 15.0
7.5 7.2 8.1 7.2 14.8 11.7 15.0 15.0 15.0 15.0 15.0 15.0 15.0 15.0 15.0 11.3 5.6 15.0 15.0 15.0 15.0 15.0 13.9 15.0 13.1 7.7 15.0 0.1 12.0 15.0 11.5 8.7 14.1 7.6 0.6 15.0 4.3 0.1 13.6 15.0 15.0 15.0 15.0 15.0 15.0 15.0 15.0 15.0 15.0 15.0 15.0 15.0 15.0 15.0
13.4 15.0 15.0 14.7 8.0 15.0 14.7 12.4 13.6 15.0 15.0 15.0 15.0 15.0 13.6 0.5 15.0 15.0 15.0 15.0 14.9 14.3 15.0 15.0 15.0 2.5 6.1 8.9 0.2 6.6 0.8 15.0 4.6 10.6 14.8 6.8 14.6 15.0 15.0 15.0 15.0 15.0 15.0 15.0 15.0 15.0 15.0 15.0 15.0 15.0 15.0 15.0 15.0 15.0
15.0 15.0 15.0 15.0 15.0 15.0 14.5 12.9 15.0 15.0 15.0 15.0 15.0 0.1 0.7 15.0 15.0 15.0 13.6 13.3 1.0 15.0 15.0 15.0 15.0 4.7 15.0 12.3 0.6 11.3 4.7 5.5 0.7 14.0 11.8 6.0 6.8 15.0 15.0 15.0 15.0 15.0 15.0 12.5 15.0 15.0 15.0 15.0 15.0 15.0 15.0 14.1 0.1 0.1
15.0 13.0 13.7 15.0 14.2 14.4 14.9 13.0 15.0 15.0 15.0 15.0 15.0 15.0 15.0 15.0 15.0 15.0 3.1 12.1 6.6 15.0 15.0 15.0 15.0 15.0 15.0 15.0 15.0 5.5 3.8 0.7 6.1 6.3 0.3 6.8 15.0 15.0 15.0 15.0 15.0 15.0 15.0 15.0 15.0 15.0 15.0 15.0 15.0 15.0 15.0 15.0 15.0 15.0
14.7 14.6 15.0 8.3 3.3 4.6 14.4 15.0 15.0 15.0 15.0 15.0 15.0 15.0 15.0 8.5 4.9 14.4 0.6 11.4 6.8 15.0 14.5 3.0 15.0 1.0 6.0 3.0 13.5 2.6 1.7 5.4 0.1 0.1 7.0 15.0 2.5 0.4 14.5 15.0 15.0 15.0 15.0 15.0 15.0 15.0 12.7 10.8 7.7 15.0 2.6 14.0 15.0 15.0
15.0 15.0 15.0 12.7 7.6 8.3 15.0 15.0 15.0 15.0 15.0 15.0 15.0 14.7 14.9 6.0 4.2 15.0 15.0 15.0 15.0 14.3 4.5 7.3 3.8 3.5 0.3 0.5 1.1 2.7 15.0 2.6 0.3 0.5 5.5 5.2 14.0 0.7 15.0 15.0 13.6 4.6 15.0 15.0 15.0 11.8 0.1 0.0 0.1 0.3 11.4 15.0 15.0 7.6
15.0 12.8 15.0 14.4 12.0 10.1 15.0 15.0 15.0 15.0 15.0 15.0 15.0 0.3 0.1 13.5 5.1 13.3 7.9 9.9 5.6 15.0 15.0 15.0 15.0 15.0 7.5 0.7 0.8 15.0 11.4 2.5 14.8 5.5 1.2 15.0 15.0 15.0 15.0 15.0 15.0 15.0 15.0 15.0 15.0 7.5 0.6 0.1 0.1 0.1 8.0 15.0 15.0 15.0
15.0 15.0 15.0 15.0 15.0 15.0 15.0 15.0 15.0 15.0 15.0 10.8 5.5 13.6 13.0 15.0 2.2 0.2 9.8 11.7 15.0 3.1 11.0 15.0 9.9 5.7 15.0 6.2 0.2 10.4 15.0 15.0 15.0 12.9 5.9 15.0 15.0 15.0 15.0 13.2 15.0 15.0 15.0 15.0 15.0 9.9 8.3 0.8 0.1 0.1 0.6 0.6 7.1 5.7
15.0 15.0 15.0 15.0 15.0 15.0 15.0 15.0 15.0 15.0 13.7 5.5 15.0 12.2 6.6 7.8 14.5 15.0 15.0 15.0 15.0 15.0 15.0 15.0 15.0 13.7 0.1 0.2 1.2 15.0 15.0 11.7 0.5 2.9 10.5 15.0 15.0 15.0 15.0 6.6 6.7 11.6 15.0 15.0 15.0 10.4 1.0 0.8 3.4 6.2 0.8 1.9 0.5 0.2
15.0 15.0 15.0 15.0 15.0 15.0 15.0 15.0 15.0 15.0 15.0 14.8 15.0 15.0 14.7 13.5 4.7 6.3 13.2 15.0 15.0 12.5 13.2 15.0 15.0 5.9 0.4 0.1 0.1 0.5 0.3 0.1 0.1 4.8 12.5 15.0 15.0 15.0 15.0 15.0 15.0 15.0 15.0 15.0 15.0 5.0 1.3 0.3 0.2 0.1 0.1 0.1 0.1 0.1
15.0 15.0 15.0 15.0 15.0 15.0 9.0 8.5 15.0 13.5 15.0 15.0 15.0 14.0 11.3 5.1 1.5 15.0 15.0 15.0 15.0 6.8 0.0 1.3 2.1 4.6 11.8 14.9 15.0 15.0 12.8 3.8 0.1 13.2 14.8 15.0 15.0 15.0 6.9 15.0 15.0 15.0 15.0 15.0 15.0 14.8 7.7 0.5 3.5 2.4 1.4 0.5 0.1 0.1
15.0 15.0 15.0 15.0 15.0 15.0 13.6 15.0 15.0 9.0 12.4 15.0 15.0 14.6 15.0 11.4 15.0 12.8 15.0 15.0 1.6 0.0 0.1 5.3 14.1 15.0 11.1 14.7 15.0 15.0 15.0 15.0 3.6 1.4 4.4 15.0 15.0 15.0 15.0 15.0 15.0 15.0 15.0 15.0 15.0 15.0 0.3 0.2 2.9 10.5 6.9 1.5 0.6 0.2
15.0 15.0 14.9 15.0 15.0 15.0 15.0 15.0 15.0 15.0 15.0 15.0 15.0 8.9 13.9 15.0 15.0 15.0 14.3 15.0 1.4 5.7 11.6 15.0 15.0 15.0 15.0 15.0 4.7 14.8 15.0 15.0 15.0 15.0 14.8 15.0 15.0 15.0 15.0 15.0 15.0 15.0 15.0 15.0 15.0 15.0 15.0 15.0 14.9 3.1 0.7 0.9 14.9 3.2
4.0 15.0 0.0 1.7 13.2 15.0 7.6 15.0 9.9 0.5 0.0 15.0 15.0 15.0 13.9 6.6 6.4 2.4 1.9 0.2 11.4 15.0 15.0 15.0 15.0 15.0 15.0 15.0 15.0 15.0 15.0 15.0 15.0 15.0 9.3 15.0 15.0 15.0 15.0 15.0 15.0 15.0 15.0 15.0 15.0 15.0 10.0 15.0 15.0 11.7 1.1 0.3 0.8 1.9
0.5 7.4 0.7 0.4 12.8 3.7 1.5 15.0 12.6 8.4 0.9 15.0 8.0 1.5 15.0 15.0 8.0 15.0 6.9 14.0 15.0 15.0 15.0 15.0 15.0 15.0 15.0 15.0 15.0 15.0 15.0 15.0 15.0 15.0 15.0 15.0 15.0 15.0 15.0 15.0 15.0 15.0 15.0 15.0 15.0 15.0 15.0 15.0 2.3 3.8 1.2 0.7 1.1 0.5
0.1 0.0 0.1 0.1 7.3 2.5 15.0 15.0 15.0 14.7 13.6 15.0 14.9 15.0 15.0 15.0 7.1 3.7 15.0 15.0 15.0 15.0 15.0 15.0 15.0 15.0 15.0 15.0 15.0 15.0 15.0 15.0 15.0 15.0 15.0 15.0 15.0 15.0 15.0 15.0 15.0 15.0 15.0 15.0 15.0 15.0 15.0 2.0 0.2 0.6 0.5 0.6 0.5 0.5
0.0 0.1 8.4 8.2 0.4 1.6 0.2 10.9 15.0 15.0 15.0 15.0 15.0 15.0 15.0 15.0 15.0 15.0 15.0 15.0 9.6 0.1 0.1 14.1 15.0 15.0 13.7 0.1 0.6 15.0 15.0 15.0 15.0 15.0 14.4 15.0 14.5 10.2 14.6 15.0 15.0 15.0 0.6 7.6 7.1 15.0 15.0 1.5 0.7 0.7 0.9 1.3 4.0 1.3
0.1 0.1 0.1 0.5 0.1 0.2 2.0 5.1 15.0 15.0 15.0 15.0 15.0 15.0 15.0 15.0 15.0 15.0 15.0 10.0 10.8 8.7 5.4 12.7 13.0 0.2 0.2 9.3 5.6 10.3 2.3 15.0 15.0 14.8 15.0 15.0 15.0 3.3 0.3 10.8 10.2 10.3 0.9 0.1 0.3 0.0 0.1 3.9 8.2 0.2 0.2 0.9 0.9 1.2
0.1 0.1 0.3 15.0 15.0 5.1 1.0 1.2 15.0 2.6 7.0 15.0 15.0 15.0 15.0 15.0 15.0 15.0 4.7 4.0 1.0 0.5 8.5 8.9 15.0 15.0 7.3 4.1 14.5 15.0 15.0 15.0 15.0 15.0 11.4 0.1 0.0 0.1 0.2 0.1 0.8 7.1 15.0 1.3 0.1 0.0 0.0 0.1 7.2 5.5 0.4 0.1 0.2 0.6
0.1 3.1 0.2 4.6 5.9 13.3 0.3 0.1 0.2 1.1 1.8 7.0 13.5 15.0 9.4 15.0 7.5 2.5 0.4 0.2 1.7 6.1 11.4 15.0 15.0 15.0 15.0 15.0 15.0 15.0 15.0 8.2 0.8 2.0 0.2 1.9 3.8 1.7 0.1 0.1 0.1 0.2 15.0 14.1 15.0 0.5 0.1 0.1 0.2 0.2 0.2 0.4 2.7 0.2
12.1 15.0 15.0 0.8 0.1 0.1 0.1 0.1 0.2 0.2 2.7 0.2 0.1 2.0 1.5 1.2 0.3 0.3 0.3 0.2 0.1 0.2 0.1 13.2 15.0 15.0 0.3 2.2 13.7 14.3 9.7 14.9 15.0 5.4 3.8 0.9 3.3 13.3 15.0 7.8 5.8 12.8 15.0 15.0 13.1 3.9 0.5 0.2 0.5 0.8 0.4 0.0 0.5 0.5
15.0 15.0 10.3 8.7 0.4 0.1 0.2 15.0 15.0 15.0 15.0 7.1 2.5 0.2 0.2 0.4 0.2 0.1 0.2 0.4 0.1 0.1 0.1 0.1 0.6 11.7 1.1 3.1 0.2 0.4 0.9 1.6 8.9 4.9 1.4 5.1 2.0 1.4 1.3 4.2 5.7 2.2 0.2 0.1 0.1 0.1 1.6 0.2 0.2 0.1 0.1 0.1 0.0 0.1
15.0 1.7 0.3 0.4 3.8 15.0 15.0 15.0 15.0 15.0 12.8 5.1 8.6 0.1 0.4 0.2 0.1 0.2 0.4 0.1 0.1 0.1 0.1 0.1 0.1 0.1 0.1 0.9 4.3 4.8 2.1 6.6 3.5 3.0 1.5 1.6 8.2 13.0 14.8 4.3 2.7 1.1 0.7 0.6 0.0 0.1 0.3 0.7 0.3 0.2 0.3 0.1 0.1 0.0
14.8 14.2 14.2 12.7 15.0 15.0 15.0 8.8 15.0 6.3 15.0 1.6 0.2 0.1 0.1 0.1 0.1 0.3 0.2 0.2 0.2 0.1 0.1 0.1 0.1 0.1 0.1 0.2 0.6 1.1 0.5 0.3 0.5 0.9 0.8 1.1 1.3 1.3 2.3 4.5 8.8 1.9 0.8 0.9 3.0 0.6 0.3 0.2 0.3 0.3 0.5 0.2 0.1 0.1
12.8 13.3 3.4 3.7 11.8 15.0 15.0 15.0 15.0 7.5 5.4 2.7 0.2 0.1 0.1 0.1 0.1 0.1 0.8 0.3 0.1 0.1 0.1 0.1 0.2 0.1 0.1 0.2 0.3 0.4 0.4 1.2 6.3 7.8 10.7 11.7 7.3 4.9 4.7 1.3 0.6 0.6 1.3 4.4 2.3 0.8 0.6 0.5 0.6 0.8 0.8 1.5 5.3 9.6